Terminal Aerodrome Forecast
Issued by NWS State College, PA

Home | Current Version | Previous Version | Text Only | Print | Product List | Glossary On
Versions: 1 2 3 4 5 6 7 8 9 10 11 12 13 14 15 16 17 18 19 20 21 22 23 24 25 26 27 28 29 30 31 32 33 34 35 36 37 38 39 40 41 42 43 44 45 46 47 48 49 50
047
FTUS41 KCTP 301800 RRA
TAFMDT
TAF
KMDT 301800Z 3018/3118 12005KT P6SM OVC070
     FM302000 12008KT P6SM VCSH BKN040 OVC070
     FM310200 12005KT P6SM VCSH OVC030
     FM310800 13005KT 4SM -SHRA BR OVC010 PROB30 3112/3118 2SM -TSRA
      OVC010CB=

USA.gov is the U.S. government's official web portal to all federal, state and local government web resources and services.